Regional Weather Roundup
Issued by NWS Jackson, KY

Home | Current Version | Previous Version | Graphics & Text | Print | Product List | Glossary Off
Versions: 1 2 3 4 5 6 7 8 9 10 11 12 13 14 15 16 17 18 19 20 21 22 23 24 25 26 27 28 29 30 31 32 33 34 35 36 37 38 39 40 41 42 43 44 45 46 47 48 49 50

000
ASUS43 KJKL 191710
RWRJKL

EAST KENTUCKY HOURLY WEATHER ROUNDUP
NATIONAL WEATHER SERVICE JACKSON KY
100 PM EDT SAT AUG 19 2017

NOTE: "FAIR" INDICATES FEW OR NO CLOUDS BELOW 12,000 FEET WITH
NO SIGNIFICANT WEATHER AND/OR OBSTRUCTIONS TO VISIBILITY.

* THESE REPORTS ARE NOT UNDER NWS QUALITY CONTROL AND MAY NOT
  REPORT WEATHER SUCH AS PRECIPITATION AND FOG.

KYZ079-080-083-085-087-088-110-112-115-119-120-191800
...EASTERN KENTUCKY...

CITY           SKY/WX    TMP DP  RH WIND       PRES   REMARKS
JACKSON        MOSUNNY   81  66  60 VRB6      30.04S
LONDON         MOSUNNY   83  66  56 W6        30.04S
SOMERSET*      MOSUNNY   81  64  57 W9        30.05S
MONTICELLO*    SUNNY     84  70  62 W12       30.05S
WILLIAMSBURG*  MOSUNNY   81  66  61 W5        30.04S
MIDDLESBORO*   SUNNY     83  66  56 NE3       30.05S
HARLAN APT*    SUNNY     79  64  61 CALM      30.06S
PIKE CO APT*     N/A     79  68  69 S5        30.04F
BIG SANDY APT* SUNNY     82  68  63 W3        30.03S
MOREHEAD APT*  MOSUNNY   82  66  57 SW9       30.02S
$$

KYZ035-036-041-042-044-050-067-078-099-191800
...CENTRAL KENTUCKY...

CITY           SKY/WX    TMP DP  RH WIND       PRES   REMARKS
MT STERLING*   SUNNY     81  68  65 SW7       30.03S
FLEMING/MASON* CLOUDY    84  67  55 W7        30.01S
DANVILLE*      MOSUNNY   82  63  51 CALM      30.02F
LEXINGTON      MOSUNNY   82  66  58 W7        30.01S
FRANKFORT      MOSUNNY   83  65  54 VRB6      29.98F
LOUISVILLE     MOSUNNY   86  68  54 VRB3      29.96F
LEBANON*         N/A     84  66  54 SW3       30.00S
GLASGOW*       SUNNY     86  67  53 SW3       30.01F
BOWLING GREEN  CLOUDY    86  66  51 CALM      30.01R
$$

KYZ091>093-OHZ055-061-077-WVZ005-015-034-035-042-191800
...SOUTHERN OHIO/WEST VIRGINIA...

CITY           SKY/WX    TMP DP  RH WIND       PRES   REMARKS
COVINGTON      MOSUNNY   83  70  64 SW8       29.97F
COLUMBUS       MOSUNNY   83  67  58 SW8       29.94S
DAYTON         MOSUNNY   81  64  56 W13       29.98S
WILMINGTON     SUNNY     82  69  64 SW10      29.98S
HUNTINGTON     SUNNY     83  65  54 SW9       29.98F
CHARLESTON     MOSUNNY   83  64  52 SW8       29.99F
PINEVILLE*     SUNNY     80  64  59 MISG      30.10S
BECKLEY        MOSUNNY   77  62  59 CALM      30.08S
BLUEFIELD      SUNNY     73  58  59 CALM      30.12F
LOGAN CO APT*    N/A     81  66  61 VRB6      30.04F
$$

VAZ002-007-008-TNZ017-027-036-066-071-191800
...SOUTHWEST VIRGINIA/EAST TENNESSEE...

CITY           SKY/WX    TMP DP  RH WIND       PRES   REMARKS
WISE*          SUNNY     77  61  57 SW3       30.12F
JONESVILLE*      N/A     82  64  54 SW3       30.07F
ABINGDON*      PTSUNNY   79  65  62 W7        30.09S
BRISTOL        MOSUNNY   80  66  62 SE6       30.06F
MORRISTOWN*    SUNNY     82  64  54 CALM      30.05S
SEVIERVILLE*   SUNNY     84  61  45 SE3       30.03S
KNOXVILLE      MOSUNNY   82  64  54 VRB5      30.03S
LAFOLLETTE*    SUNNY     82  66  57 CALM      30.08R
OAK RIDGE      MOSUNNY   84  64  50 VRB7      30.05S
CROSSVILLE     SUNNY     80  62  54 CALM      30.09R
NASHVILLE      PTSUNNY   86  67  52 CALM      30.01F
$$

...KEY TO REMARKS...
VSB - VISIBILITY IN MILES
WCI - WIND CHILL INDEX
HX  - HEAT INDEX

$$



USA.gov is the U.S. government's official web portal to all federal, state and local government web resources and services.